Rochelle, IL

7:26 PM CDT on October 21, 2017 (GMT -0500)
Rochelle

Weather History for KRPJ - October, 2012

Change the Weather History Date:

Thursday, October 11, 2012

  Actual Average (KRFD) Record (KRFD)
Temperature  
Mean Temperature 48 °F -  
Max Temperature 67 °F 63 °F 88 °F (1920)
Min Temperature 28 °F 41 °F 25 °F (2009)
Degree Days  
Heating Degree Days 18    
Moisture  
Dew Point 34 °F    
Average Humidity 63    
Maximum Humidity 92    
Minimum Humidity 28    
Precipitation  
Precipitation 0.02 in - - ()
Sea Level Pressure  
Sea Level Pressure 30.13 in    
Wind  
Wind Speed 10 mph (SW)    
Max Wind Speed 22 mph    
Max Gust Speed 29 mph    
Visibility 10 miles    
Events Rain    
Averages and records for this station are not official NWS values.
T = Trace of Precipitation, MM = Missing Value Source: NWS Daily Summary

Daily Weather History Graph

Daily Weather History Graph

Search for Another Location

Airport or City:

Trip Planner

Search our weather history database for the weather conditions in past years. The results will help you decide how hot, cold, wet, or windy it might be!

Date:

Astronomy

Oct. 11, 2012 Rise Set
Actual Time 7:04 AM CDT 6:20 PM CDT
Civil Twilight 6:36 AM CDT 6:48 PM CDT
Nautical Twilight 6:04 AM CDT 7:20 PM CDT
Astronomical Twilight 5:32 AM CDT 7:52 PM CDT
Moon 2:39 AM CDT (10/11) 3:59 PM CDT (10/11)
Length of Visible Light 12h 11m
Length of Day
11h 15m
Waning Crescent, 18% of the Moon is Illuminated
Oct 11
Waning Crescent
Oct 15
New
Oct 21
First Quarter
Oct 29
Full
Nov 6
Last Quarter

Hourly Weather History & Observations

Time (CDT) Temp. Windchill Dew Point Humidity Pressure Visibility Wind Dir Wind Speed Gust Speed Precip Events Conditions
12:15 AM 28.9 °F 22.8 °F 27.0 °F 92% 30.16 in 10.0 mi South 5.8 mph - N/A   Clear
12:35 AM 28.8 °F 21.7 °F 26.8 °F 92% 30.15 in 10.0 mi South 6.9 mph - N/A   Clear
1:35 AM 29.1 °F 24.1 °F 27.1 °F 92% 30.14 in 10.0 mi SSE 4.6 mph - N/A   Clear
1:55 AM 29.8 °F 23.9 °F 27.5 °F 91% 30.14 in 10.0 mi South 5.8 mph - N/A   Clear
2:15 AM 29.3 °F 23.2 °F 27.3 °F 92% 30.13 in 10.0 mi South 5.8 mph - N/A   Clear
2:55 AM 30.2 °F 24.3 °F 27.9 °F 91% 30.12 in 10.0 mi South 5.8 mph - N/A   Clear
3:15 AM 30.4 °F 24.5 °F 28.2 °F 92% 30.12 in 10.0 mi South 5.8 mph - N/A   Clear
3:35 AM 30.9 °F 24.3 °F 28.4 °F 90% 30.12 in 10.0 mi South 6.9 mph - N/A   Clear
3:55 AM 32.2 °F 25.0 °F 29.7 °F 90% 30.12 in 10.0 mi South 8.1 mph - N/A   Clear
4:15 AM 35.8 °F 29.4 °F 31.5 °F 84% 30.12 in 10.0 mi South 8.1 mph - N/A   Clear
4:35 AM 35.8 °F 29.4 °F 31.6 °F 85% 30.12 in 10.0 mi South 8.1 mph - N/A   Clear
4:55 AM 34.9 °F 28.3 °F 31.5 °F 87% 30.12 in 10.0 mi South 8.1 mph - N/A   Clear
5:15 AM 34.7 °F 27.5 °F 31.5 °F 88% 30.12 in 10.0 mi South 9.2 mph - N/A   Clear
5:35 AM 35.6 °F 27.5 °F 31.6 °F 85% 30.11 in 10.0 mi South 11.5 mph - N/A   Clear
5:55 AM 36.5 °F 29.2 °F 31.8 °F 83% 30.11 in 10.0 mi South 10.4 mph - N/A   Clear
6:15 AM 36.5 °F 28.7 °F 31.8 °F 83% 30.11 in 10.0 mi SSW 11.5 mph - N/A   Clear
6:35 AM 37.0 °F 30.4 °F 31.8 °F 81% 30.11 in 10.0 mi SSW 9.2 mph - N/A   Clear
6:55 AM 37.6 °F 30.5 °F 32.0 °F 80% 30.10 in 10.0 mi SSW 10.4 mph - N/A   Clear
7:15 AM 38.5 °F 32.1 °F 32.0 °F 78% 30.11 in 10.0 mi SSW 9.2 mph - N/A   Clear
7:35 AM 38.7 °F 31.8 °F 32.0 °F 77% 30.11 in 10.0 mi SSW 10.4 mph - N/A   Clear
7:55 AM 40.1 °F 33.2 °F 32.0 °F 73% 30.10 in 10.0 mi SSW 11.5 mph - N/A   Clear
8:15 AM 41.9 °F 35.0 °F 32.2 °F 68% 30.11 in 10.0 mi SW 12.7 mph - N/A   Clear
8:35 AM 43.7 °F 37.7 °F 32.7 °F 65% 30.12 in 10.0 mi SSW 11.5 mph 16.1 mph N/A   Clear
8:55 AM 45.7 °F 41.0 °F 33.3 °F 62% 30.12 in 10.0 mi SSW 9.2 mph - N/A   Clear
9:15 AM 47.7 °F - 32.9 °F 57% 30.12 in 10.0 mi SSW 13.8 mph - N/A   Clear
9:35 AM 49.5 °F - 33.4 °F 54% 30.12 in 10.0 mi SSW 15.0 mph 19.6 mph N/A   Clear
9:55 AM 52.0 °F - 33.1 °F 49% 30.12 in 10.0 mi SW 16.1 mph 23.0 mph N/A   Clear
10:15 AM 54.1 °F - 33.3 °F 45% 30.11 in 10.0 mi SW 18.4 mph 24.2 mph N/A   Clear
10:35 AM 55.9 °F - 33.4 °F 43% 30.10 in 10.0 mi SSW 17.3 mph 21.9 mph N/A   Clear
10:55 AM 57.2 °F - 32.7 °F 40% 30.11 in 10.0 mi SW 17.3 mph 27.6 mph N/A   Clear
11:15 AM 58.8 °F - 32.5 °F 37% 30.10 in 10.0 mi WSW 18.4 mph 26.5 mph N/A   Clear
11:35 AM 60.1 °F - 32.4 °F 35% 30.11 in 10.0 mi SW 16.1 mph 24.2 mph N/A   Clear
11:55 AM 61.0 °F - 32.2 °F 34% 30.09 in 10.0 mi SW 15.0 mph 28.8 mph N/A   Clear
12:15 PM 61.9 °F - 32.7 °F 34% 30.08 in 10.0 mi SW 18.4 mph 25.3 mph N/A   Clear
12:55 PM 63.9 °F - 32.2 °F 31% 30.06 in 10.0 mi WSW 16.1 mph 26.5 mph N/A   Clear
1:15 PM 65.1 °F - 32.5 °F 30% 30.06 in 10.0 mi SW 18.4 mph 25.3 mph N/A   Clear
1:35 PM 65.7 °F - 33.4 °F 30% 30.06 in 10.0 mi WSW 17.3 mph 23.0 mph N/A   Clear
1:55 PM 65.7 °F - 33.1 °F 30% 30.06 in 10.0 mi WSW 21.9 mph 28.8 mph N/A   Clear
2:35 PM 66.2 °F - 33.4 °F 30% 30.06 in 10.0 mi WSW 19.6 mph 25.3 mph N/A   Clear
2:55 PM 66.0 °F - 33.8 °F 30% 30.05 in 10.0 mi WSW 15.0 mph 21.9 mph N/A   Clear
3:15 PM 66.9 °F - 33.1 °F 28% 30.05 in 10.0 mi West 15.0 mph 24.2 mph N/A   Clear
3:35 PM 67.1 °F - 33.4 °F 29% 30.04 in 10.0 mi West 12.7 mph 17.3 mph N/A   Clear
3:55 PM 67.8 °F - 33.8 °F 28% 30.04 in 10.0 mi WSW 13.8 mph 19.6 mph N/A   Clear
4:15 PM 66.9 °F - 34.2 °F 30% 30.05 in 10.0 mi West 16.1 mph 19.6 mph N/A   Clear
4:35 PM 66.4 °F - 34.5 °F 31% 30.05 in 10.0 mi West 12.7 mph 16.1 mph N/A   Clear
4:55 PM 64.9 °F - 35.1 °F 33% 30.06 in 10.0 mi West 10.4 mph 17.3 mph N/A   Clear
5:35 PM 63.0 °F - 37.6 °F 39% 30.06 in 10.0 mi West 5.8 mph - N/A   Scattered Clouds
5:55 PM 62.4 °F - 38.8 °F 42% 30.07 in 10.0 mi NW 5.8 mph - N/A   Mostly Cloudy
6:35 PM 55.6 °F - 37.0 °F 50% 30.11 in 10.0 mi North 17.3 mph 23.0 mph N/A   Mostly Cloudy
6:55 PM 55.0 °F - 36.7 °F 50% 30.12 in 10.0 mi North 16.1 mph - N/A   Mostly Cloudy
7:15 PM 54.5 °F - 37.4 °F 52% 30.13 in 10.0 mi North 15.0 mph 20.7 mph N/A   Overcast
7:35 PM 53.1 °F - 39.2 °F 59% 30.15 in 10.0 mi North 16.1 mph 23.0 mph N/A Rain Light Rain
8:15 PM 50.4 °F - 39.6 °F 66% 30.18 in 10.0 mi North 11.5 mph - N/A   Overcast
8:35 PM 49.5 °F - 39.7 °F 69% 30.19 in 10.0 mi North 11.5 mph - N/A   Drizzle
8:55 PM 49.1 °F - 39.2 °F 69% 30.20 in 10.0 mi NNE 8.1 mph - N/A   Overcast
9:15 PM 47.5 °F - 40.8 °F 78% 30.21 in 10.0 mi NNE 12.7 mph - N/A Rain Light Rain
9:35 PM 46.4 °F 41.5 °F 40.6 °F 80% 30.23 in 10.0 mi NNE 10.4 mph - N/A Rain Light Rain
9:55 PM 45.1 °F 39.5 °F 40.5 °F 84% 30.23 in 10.0 mi NNE 11.5 mph - N/A Rain Light Rain
10:15 PM 44.8 °F 40.4 °F 39.4 °F 81% 30.24 in 10.0 mi NNE 8.1 mph - N/A Rain Light Rain
10:35 PM 44.4 °F 40.0 °F 39.6 °F 83% 30.24 in 10.0 mi NNE 8.1 mph - 0.01 in Rain Rain
10:55 PM 44.1 °F 41.5 °F 40.1 °F 86% 30.25 in 10.0 mi NNE 4.6 mph - 0.01 in Rain Rain
11:15 PM 44.1 °F 40.8 °F 40.1 °F 86% 30.26 in 10.0 mi NNE 5.8 mph - N/A   Overcast
11:35 PM 44.1 °F - 40.1 °F 86% 30.26 in 10.0 mi Calm Calm - N/A Rain Rain
11:55 PM 44.1 °F 41.5 °F 40.5 °F 87% 30.28 in 10.0 mi NNW 4.6 mph - 0.01 in   Light Drizzle